Whidbey Island, WA

11:14 AM PDT on June 25, 2017 (GMT -0700)
Whidbey Island Naval Air Station

Weather History for KNUW - October, 2012

Change the Weather History Date:

Wednesday, October 3, 2012

  Actual Average Record
Temperature  
Mean Temperature 50 °F -  
Max Temperature 61 °F 58 °F 66 °F (1996)
Min Temperature 41 °F 44 °F 37 °F (1999)
Degree Days  
Heating Degree Days 14    
Moisture  
Dew Point 35 °F    
Average Humidity 55    
Maximum Humidity 83    
Minimum Humidity 38    
Precipitation  
Precipitation 0.00 in - - ()
Sea Level Pressure  
Sea Level Pressure 30.37 in    
Wind  
Wind Speed 8 mph (NW)    
Max Wind Speed 14 mph    
Max Gust Speed -    
Visibility 10 miles    
Events      
Averages and records for this station are not official NWS values.
T = Trace of Precipitation, MM = Missing Value Source: NWS Daily Summary

Daily Weather History Graph

Daily Weather History Graph

Search for Another Location

Airport or City:

Trip Planner

Search our weather history database for the weather conditions in past years. The results will help you decide how hot, cold, wet, or windy it might be!

Date:

Astronomy

Oct. 03, 2012 Rise Set
Actual Time 7:13 AM PDT 6:44 PM PDT
Civil Twilight 6:42 AM PDT 7:15 PM PDT
Nautical Twilight 6:06 AM PDT 7:51 PM PDT
Astronomical Twilight 5:29 AM PDT 8:28 PM PDT
Moon 8:20 PM PDT (10/3) 11:01 AM PDT (10/3)
Length of Visible Light 12h 32m
Length of Day
11h 30m
Waning Gibbous, 88% of the Moon is Illuminated
Oct 3
Waning Gibbous
Oct 8
Last Quarter
Oct 15
New
Oct 21
First Quarter
Oct 29
Full

Hourly Weather History & Observations

Time (PDT) Temp. Windchill Dew Point Humidity Pressure Visibility Wind Dir Wind Speed Gust Speed Precip Events Conditions
12:56 AM 53.1 °F - 30.0 °F 41% 30.34 in 10.0 mi NNE 13.8 mph - N/A   Scattered Clouds
1:56 AM 53.1 °F - 28.0 °F 38% 30.35 in 10.0 mi NNE 12.7 mph - N/A   Clear
2:56 AM 50.0 °F - 28.0 °F 43% 30.36 in 10.0 mi North 10.4 mph - N/A   Clear
3:56 AM 51.1 °F - 28.0 °F 41% 30.38 in 10.0 mi North 8.1 mph - N/A   Clear
4:56 AM 48.0 °F - 28.9 °F 48% 30.38 in 10.0 mi NE 3.5 mph - N/A   Clear
5:56 AM 48.9 °F - 30.0 °F 48% 30.39 in 10.0 mi NNW 3.5 mph - N/A   Clear
6:56 AM 41.0 °F 37.1 °F 30.0 °F 65% 30.40 in 10.0 mi ESE 5.8 mph - N/A   Partly Cloudy
7:56 AM 41.0 °F 38.0 °F 32.0 °F 70% 30.41 in 10.0 mi SSW 4.6 mph - N/A   Scattered Clouds
8:56 AM 52.0 °F - 34.0 °F 50% 30.42 in 10.0 mi Calm Calm - N/A   Scattered Clouds
9:56 AM 55.0 °F - 32.0 °F 42% 30.43 in 10.0 mi WNW 3.5 mph - N/A   Mostly Cloudy
10:56 AM 55.9 °F - 35.1 °F 45% 30.43 in 10.0 mi NW 8.1 mph - N/A   Scattered Clouds
11:56 AM 59.0 °F - 33.1 °F 38% 30.43 in 10.0 mi NW 8.1 mph - N/A   Scattered Clouds
12:56 PM 60.1 °F - 36.0 °F 41% 30.41 in 10.0 mi NW 6.9 mph - N/A   Partly Cloudy
1:56 PM 59.0 °F - 39.9 °F 49% 30.40 in 10.0 mi WNW 9.2 mph - N/A   Scattered Clouds
2:56 PM 57.9 °F - 41.0 °F 53% 30.38 in 10.0 mi West 8.1 mph - N/A   Partly Cloudy
3:56 PM 57.9 °F - 42.1 °F 56% 30.36 in 10.0 mi West 8.1 mph - N/A   Partly Cloudy
4:56 PM 57.0 °F - 43.0 °F 59% 30.35 in 10.0 mi West 8.1 mph - N/A   Clear
5:56 PM 55.9 °F - 41.0 °F 57% 30.33 in 10.0 mi NW 8.1 mph - N/A   Clear
6:56 PM 51.1 °F - 39.9 °F 66% 30.32 in 10.0 mi NNW 10.4 mph - N/A   Clear
7:56 PM 50.0 °F - 39.9 °F 68% 30.32 in 10.0 mi NNW 6.9 mph - N/A   Clear
8:56 PM 46.9 °F - 37.0 °F 68% 30.31 in 10.0 mi Calm Calm - N/A   Clear
9:56 PM 46.9 °F - 37.0 °F 68% 30.32 in 10.0 mi WSW 5.8 mph - N/A   Clear
10:56 PM 46.0 °F - 41.0 °F 83% 30.33 in 10.0 mi Calm Calm - N/A   Partly Cloudy
11:56 PM 46.0 °F - 39.0 °F 76% 30.32 in 10.0 mi Calm Calm - N/A   Clear